Location: Bacharowice
(49.9333°N, 19.5833°E)
Time: 22:20:51
(UTC+00:00)

Iridium 4 Rocket - Pass Details

Date: 11 May 2021
Orbit: 583 x 906 km, 86.9° (Epoch: 21 June)

Event Time Altitude Azimuth Distance (km) Brightness Sun altitude
Exits shadow 19:51:13 15° 161° (SSE) 2,199 5.3 -12.7°
Maximum altitude 19:55:57 58° 87° (E) 1,049 4.0 -13.1°
Drops below altitude 10° 20:01:46 10° 10° (N) 2,601 6.8 -13.7°
Sets 20:04:16 0° 7° (N) 3,539 7.7 -14.0°
